Location: Ferris
(32.5340°N, 96.6656°W)
Time: 22:30:32
(UTC+00:00)

Cosmos 1354 Rocket - Pass Details

Date: 26 May 2026
Orbit: 761 x 778 km, 74.0° (Epoch: 7 June)

Event Time Altitude Azimuth Distance (km) Brightness Sun altitude
Rises 03:43:01 0° 332° (NNW) 3,226 8.5 -24.0°
Reaches altitude 10° 03:45:34 10° 323° (NW) 2,295 7.5 -24.4°
Maximum altitude 03:50:13 34° 260° (W) 1,232 5.2 -25.0°
Enters shadow 03:52:04 26° 221° (SW) 1,452 5.3 -25.3°
